STARLINK-37919

Last updated on Sun Aug 09 2026 00:02:04 GMT+0000 (Coordinated Universal Time)

1 69957U 26157Q 26220.15553323 .00022609 00000+0 41313-3 0 9999 2 69957 53.1597 177.4070 0001249 79.3352 280.7797 15.49327296 4708
UTC large
Height (km)
Speed (km/s)
/
Latitude / Longitude
Inclination (degrees)
Orbital Period (minutes)
Azimuth
Elevation
Range (km)
Doppler Factor

Next 0 passes for location: London (51.5072 / 0.1276)

No passes found over London.
STARLINK-37919